User: anonymous   Login
Location: Clandonald
(53.5720°N, 110.7141°W)
Time: 19:18:45
(UTC+00:00)
Language:

Envisat - Orbit

View from above orbital plane
View from above orbital plane
View from above satellite
View from above satellite

Ground track
Ground track

The orbit data is extracted from the following two-line orbital elements,

1 27386U 02009A   19317.55520581  .00000001  00000-0  13883-4 0  9997
2 27386  98.1431 330.9712 0001294  95.5491  75.2728 14.37962620927445
Epoch (UTC): 13 November 2019 13:19:29
Eccentricity: 0.0001294
inclination: 98.1431°
perigee height: 764 km
apogee height: 766 km
right ascension of ascending node: 330.9712°
argument of perigee: 95.5491°
revolutions per day: 14.37962620
mean anomaly at epoch: 75.2728°
orbit number at epoch: 92744

The dashed part of the orbit path shows where the satellite is in the earth's shadow,  

DLR